Tracking 19563 objects as of 20-Mar-2019
HD Live streaming from Space Station
objects crossing your sky now

TOMS EP

Track TOMS EP now!
10-day predictions
TOMS EP is classified as:


NORAD ID: 23940
Int'l Code: 1996-037A
Perigee: 694.9 km
Apogee: 736.8 km
Inclination: 98.2 °
Period: 99.0 minutes
Semi major axis: 7086 km
RCS: 1.8693 m2 (large)
Launch date: July 2, 1996
Source: United States (US)
Launch site: AIR FORCE WESTERN TEST RANGE (AFWTR)
aabbcc
Your satellite tracking list
Your tracking list is empty




NASA's NSSDC Master Catalog

Two Line Element Set (TLE):
1 23940U 96037A   19079.50078521  .00000024  00000-0  16014-4 0  9999
2 23940  98.1772 208.0903 0029549  97.3962 263.0595 14.55205927207134
Source of the keplerian elements: AFSPC